| time (UTC) | temp C | wind direction | speed KPH | gust KPH | rain 1hr cm | rain 24hr cm | rain mn cm | humidity % | barometer mb |
| 20260502152328 | 18 | 275 | 8.0 | 9.7 | 0.00 | 0.00 | 0.00 | 70 | 1017.9 |
| 20260502151826 | 18 | 202 | 8.0 | 9.7 | 0.00 | 0.00 | 0.00 | 70 | 1017.9 |
| 20260502151322 | 18 | 313 | 6.4 | 9.7 | 0.00 | 0.00 | 0.00 | 71 | 1018.1 |
| 20260502150820 | 17 | 308 | 11.3 | 14.5 | 0.00 | 0.00 | 0.00 | 71 | 1017.9 |
| 20260502150316 | 17 | 50 | 4.8 | 8.0 | 0.00 | 0.00 | 0.00 | 72 | 1018.0 |
| 20260502130705 | 13 | 52 | 3.2 | 3.2 | 0.00 | 0.00 | 0.00 | 91 | 1016.9 |
| 20260502130203 | 12 | 28 | 3.2 | 4.8 | 0.00 | 0.00 | 0.00 | 92 | 1016.9 |
| 20260502123648 | 12 | 315 | 1.6 | 3.2 | 0.00 | 0.00 | 0.00 | 94 | 1016.2 |
| 20260502123145 | 11 | 320 | 4.8 | 4.8 | 0.00 | 0.00 | 0.00 | 94 | 1016.2 |
| 20260502122641 | 11 | 358 | 3.2 | 3.2 | 0.00 | 0.00 | 0.00 | 94 | 1015.9 |
| 20260502122138 | 11 | 302 | 3.2 | 3.2 | 0.00 | 0.00 | 0.00 | 95 | 1016.0 |
| 20260502121636 | 11 | 353 | 1.6 | 1.6 | 0.00 | 0.00 | 0.00 | 95 | 1015.9 |
| 20260502121133 | 11 | 20 | 0.0 | 1.6 | 0.00 | 0.00 | 0.00 | 95 | 1015.9 |
| 20260502120630 | 11 | 6 | 3.2 | 3.2 | 0.00 | 0.00 | 0.00 | 95 | 1016.0 |
| 20260502120127 | 11 | 329 | 3.2 | 8.0 | 0.00 | 0.00 | 0.00 | 95 | 1015.8 |
| 20260502115624 | 11 | 349 | 3.2 | 3.2 | 0.00 | 0.00 | 0.00 | 95 | 1015.6 |
| 20260502115120 | 11 | 335 | 4.8 | 4.8 | 0.00 | 0.00 | 0.00 | 95 | 1015.7 |
| 20260502114616 | 11 | 336 | 3.2 | 3.2 | 0.00 | 0.00 | 0.00 | 95 | 1015.6 |
| 20260502114114 | 11 | 0 | 3.2 | 3.2 | 0.00 | 0.00 | 0.00 | 95 | 1015.4 |
| 20260502113611 | 11 | 352 | 1.6 | 1.6 | 0.00 | 0.00 | 0.00 | 95 | 1015.6 |
| 20260502113110 | 11 | 327 | 4.8 | 8.0 | 0.00 | 0.00 | 0.00 | 95 | 1015.5 |
| 20260502112607 | 11 | 335 | 4.8 | 4.8 | 0.00 | 0.00 | 0.00 | 95 | 1015.6 |
| 20260502112104 | 11 | 334 | 3.2 | 4.8 | 0.00 | 0.00 | 0.00 | 95 | 1015.4 |
| 20260502111602 | 11 | 344 | 3.2 | 3.2 | 0.00 | 0.00 | 0.00 | 95 | 1015.4 |
| 20260502111059 | 11 | 21 | 1.6 | 3.2 | 0.00 | 0.00 | 0.00 | 95 | 1015.2 |
| 20260502110556 | 11 | 2 | 1.6 | 1.6 | 0.00 | 0.00 | 0.00 | 95 | 1015.5 |
| 20260502110054 | 11 | 341 | 1.6 | 1.6 | 0.00 | 0.00 | 0.00 | 95 | 1015.1 |
| 20260502105551 | 11 | 348 | 3.2 | 3.2 | 0.00 | 0.00 | 0.00 | 95 | 1015.4 |
| 20260502105048 | 11 | 351 | 1.6 | 1.6 | 0.00 | 0.00 | 0.00 | 95 | 1015.2 |
| 20260502104545 | 11 | 14 | 4.8 | 4.8 | 0.00 | 0.00 | 0.00 | 95 | 1015.2 |
| 20260502104043 | 11 | 306 | 3.2 | 3.2 | 0.00 | 0.00 | 0.00 | 95 | 1015.1 |
| 20260502103540 | 11 | 355 | 3.2 | 4.8 | 0.00 | 0.00 | 0.00 | 95 | 1014.8 |
| 20260502103038 | 11 | 321 | 1.6 | 3.2 | 0.00 | 0.00 | 0.00 | 95 | 1014.9 |
| 20260502102534 | 11 | 315 | 3.2 | 3.2 | 0.00 | 0.00 | 0.00 | 95 | 1014.8 |
| 20260502102032 | 11 | 347 | 4.8 | 4.8 | 0.00 | 0.00 | 0.00 | 95 | 1015.0 |
| 20260502101529 | 11 | 332 | 6.4 | 8.0 | 0.00 | 0.00 | 0.00 | 95 | 1015.0 |
| 20260502101028 | 11 | 353 | 4.8 | 4.8 | 0.00 | 0.00 | 0.00 | 94 | 1014.8 |
| 20260502100526 | 11 | 319 | 3.2 | 4.8 | 0.00 | 0.00 | 0.00 | 94 | 1014.6 |
| 20260502091500 | 11 | 21 | 1.6 | 1.6 | 0.00 | 0.00 | 0.00 | 94 | 1014.0 |
| 20260502090958 | 11 | 48 | 1.6 | 1.6 | 0.00 | 0.00 | 0.00 | 93 | 1013.7 |
| 20260502090454 | 11 | 324 | 3.2 | 3.2 | 0.00 | 0.00 | 0.00 | 93 | 1013.4 |
| 20260502071349 | 12 | 351 | 3.2 | 3.2 | 0.00 | 0.00 | 0.00 | 95 | 1013.6 |
| 20260502070847 | 12 | 326 | 4.8 | 4.8 | 0.00 | 0.00 | 0.00 | 95 | 1013.5 |
| 20260502070344 | 12 | 23 | 1.6 | 3.2 | 0.00 | 0.00 | 0.00 | 96 | 1013.6 |
| 20260502065844 | 12 | 37 | 4.8 | 4.8 | 0.00 | 0.00 | 0.00 | 96 | 1013.7 |
| 20260502065341 | 12 | 346 | 1.6 | 1.6 | 0.00 | 0.00 | 0.00 | 96 | 1013.4 |
| 20260502064839 | 12 | 51 | 1.6 | 1.6 | 0.00 | 0.00 | 0.00 | 96 | 1013.6 |
| 20260502064337 | 12 | 292 | 1.6 | 1.6 | 0.00 | 0.00 | 0.00 | 96 | 1013.6 |
| 20260502063833 | 12 | 336 | 3.2 | 3.2 | 0.00 | 0.00 | 0.00 | 97 | 1013.3 |
| 20260502063331 | 12 | 32 | 1.6 | 1.6 | 0.00 | 0.00 | 0.00 | 97 | 1013.4 |
| 20260502062828 | 12 | 4 | 3.2 | 3.2 | 0.00 | 0.00 | 0.00 | 97 | 1013.5 |
| 20260502062326 | 12 | 32 | 4.8 | 8.0 | 0.00 | 0.00 | 0.00 | 97 | 1013.4 |
| 20260502061825 | 12 | 11 | 4.8 | 4.8 | 0.00 | 0.00 | 0.00 | 97 | 1013.4 |
| 20260502061322 | 12 | 330 | 3.2 | 8.0 | 0.00 | 0.00 | 0.00 | 97 | 1013.4 |
| 20260502060817 | 12 | 180 | 4.8 | 8.0 | 0.00 | 0.00 | 0.00 | 97 | 1013.1 |
| 20260502060312 | 12 | 45 | 3.2 | 4.8 | 0.00 | 0.00 | 0.00 | 97 | 1013.1 |
| 20260502055811 | 12 | 55 | 3.2 | 3.2 | 0.00 | 0.00 | 0.00 | 97 | 1013.2 |
| 20260502055308 | 12 | 67 | 1.6 | 3.2 | 0.00 | 0.00 | 0.00 | 97 | 1013.1 |
| 20260502054808 | 12 | 63 | 3.2 | 8.0 | 0.00 | 0.00 | 0.00 | 97 | 1013.3 |
| 20260502054305 | 12 | 284 | 8.0 | 11.3 | 0.00 | 0.00 | 0.00 | 97 | 1013.2 |
| 20260502053802 | 12 | 351 | 1.6 | 1.6 | 0.00 | 0.00 | 0.00 | 97 | 1013.3 |
| 20260502053259 | 12 | 66 | 4.8 | 4.8 | 0.00 | 0.00 | 0.00 | 98 | 1013.1 |
| 20260502052757 | 12 | 334 | 4.8 | 9.7 | 0.00 | 0.00 | 0.00 | 98 | 1013.2 |
| 20260502052255 | 12 | 43 | 4.8 | 4.8 | 0.00 | 0.00 | 0.00 | 98 | 1013.3 |
| 20260502051752 | 12 | 53 | 3.2 | 8.0 | 0.00 | 0.00 | 0.00 | 98 | 1013.1 |
| 20260502051251 | 12 | 163 | 4.8 | 8.0 | 0.00 | 0.00 | 0.00 | 98 | 1013.3 |
| 20260502050747 | 12 | 327 | 3.2 | 3.2 | 0.00 | 0.00 | 0.00 | 98 | 1013.3 |
| 20260502050243 | 12 | 51 | 4.8 | 8.0 | 0.00 | 0.00 | 0.00 | 98 | 1013.3 |
| 20260502045740 | 12 | 83 | 1.6 | 1.6 | 0.00 | 0.86 | 0.86 | 98 | 1013.0 |
| 20260502045237 | 12 | 356 | 3.2 | 4.8 | 0.00 | 0.86 | 0.86 | 98 | 1013.3 |
| 20260502044734 | 12 | 22 | 6.4 | 8.0 | 0.00 | 0.86 | 0.86 | 98 | 1013.3 |
| 20260502044230 | 12 | 55 | 3.2 | 4.8 | 0.00 | 0.86 | 0.86 | 98 | 1013.0 |
| 20260502043728 | 12 | 62 | 4.8 | 4.8 | 0.00 | 0.86 | 0.86 | 98 | 1013.0 |
| 20260502043225 | 12 | 33 | 4.8 | 4.8 | 0.00 | 0.86 | 0.86 | 98 | 1013.0 |
| 20260502042724 | 12 | 29 | 3.2 | 3.2 | 0.00 | 0.86 | 0.86 | 98 | 1012.9 |
| 20260502042222 | 12 | 82 | 1.6 | 1.6 | 0.00 | 0.86 | 0.86 | 98 | 1012.8 |
| 20260502041719 | 12 | 43 | 4.8 | 8.0 | 0.00 | 0.86 | 0.86 | 98 | 1012.9 |
| 20260502041217 | 12 | 49 | 3.2 | 4.8 | 0.00 | 0.86 | 0.86 | 98 | 1013.1 |
| 20260502040713 | 12 | 59 | 6.4 | 8.0 | 0.00 | 0.86 | 0.86 | 98 | 1013.2 |
| 20260502040210 | 12 | 342 | 6.4 | 9.7 | 0.00 | 0.86 | 0.86 | 98 | 1013.5 |
| 20260502035706 | 12 | 313 | 1.6 | 4.8 | 0.00 | 0.86 | 0.86 | 98 | 1013.2 |
| 20260502035203 | 12 | 334 | 6.4 | 8.0 | 0.00 | 0.86 | 0.86 | 98 | 1013.4 |
| 20260502034701 | 12 | 1 | 4.8 | 4.8 | 0.00 | 0.86 | 0.86 | 98 | 1012.9 |
| 20260502034159 | 12 | 349 | 4.8 | 4.8 | 0.00 | 0.86 | 0.86 | 98 | 1013.2 |
| 20260502033657 | 12 | 331 | 9.7 | 16.1 | 0.00 | 0.86 | 0.86 | 98 | 1013.0 |
| 20260502033154 | 12 | 343 | 6.4 | 11.3 | 0.00 | 0.86 | 0.86 | 98 | 1012.9 |
| 20260502032650 | 12 | 338 | 4.8 | 9.7 | 0.00 | 0.86 | 0.86 | 98 | 1013.0 |
| 20260502032146 | 12 | 282 | 4.8 | 9.7 | 0.00 | 0.86 | 0.86 | 98 | 1012.8 |
| 20260502031645 | 12 | 341 | 3.2 | 3.2 | 0.00 | 0.86 | 0.86 | 98 | 1012.7 |
| 20260502031142 | 12 | 36 | 4.8 | 4.8 | 0.00 | 0.86 | 0.86 | 98 | 1012.6 |
| 20260502030641 | 12 | 326 | 4.8 | 4.8 | 0.00 | 0.86 | 0.86 | 98 | 1012.6 |
| 20260502030139 | 12 | 40 | 6.4 | 9.7 | 0.00 | 0.86 | 0.86 | 98 | 1012.4 |
| 20260502025635 | 12 | 351 | 1.6 | 3.2 | 0.00 | 0.86 | 0.86 | 98 | 1012.4 |
| 20260502025133 | 12 | 11 | 3.2 | 8.0 | 0.00 | 0.86 | 0.86 | 98 | 1012.1 |
| 20260502024631 | 12 | 336 | 6.4 | 11.3 | 0.00 | 0.86 | 0.86 | 98 | 1011.7 |
| 20260502024129 | 12 | 21 | 3.2 | 4.8 | 0.00 | 0.86 | 0.86 | 98 | 1011.8 |
| 20260502023627 | 12 | 38 | 4.8 | 8.0 | 0.00 | 0.86 | 0.86 | 98 | 1011.9 |
| 20260502023124 | 12 | 58 | 1.6 | 1.6 | 0.00 | 0.86 | 0.86 | 98 | 1011.9 |
| 20260502022620 | 12 | 58 | 6.4 | 8.0 | 0.00 | 0.86 | 0.86 | 98 | 1011.8 |
| 20260502022118 | 13 | 15 | 8.0 | 9.7 | 0.00 | 0.86 | 0.86 | 98 | 1011.7 |
| 20260502021615 | 13 | 43 | 4.8 | 9.7 | 0.00 | 0.86 | 0.86 | 98 | 1011.4 |
| 20260502021112 | 13 | 329 | 6.4 | 9.7 | 0.00 | 0.86 | 0.86 | 98 | 1011.9 |
| 20260502020610 | 13 | 334 | 6.4 | 8.0 | 0.00 | 0.86 | 0.86 | 98 | 1011.8 |
| 20260502020106 | 13 | 352 | 4.8 | 8.0 | 0.00 | 0.86 | 0.86 | 98 | 1011.5 |
| 20260502015604 | 13 | 56 | 6.4 | 9.7 | 0.00 | 0.86 | 0.86 | 98 | 1011.5 |
| 20260502015100 | 13 | 353 | 9.7 | 11.3 | 0.00 | 0.86 | 0.86 | 98 | 1011.3 |
| 20260502014557 | 13 | 340 | 4.8 | 8.0 | 0.00 | 0.86 | 0.86 | 98 | 1011.3 |
| 20260502014054 | 13 | 343 | 6.4 | 12.9 | 0.00 | 0.86 | 0.86 | 98 | 1010.9 |
| 20260502013549 | 13 | 316 | 4.8 | 8.0 | 0.00 | 0.86 | 0.86 | 98 | 1010.8 |
| 20260502013046 | 13 | 334 | 4.8 | 4.8 | 0.00 | 0.86 | 0.86 | 98 | 1010.5 |
| 20260502012543 | 13 | 34 | 3.2 | 4.8 | 0.00 | 0.86 | 0.86 | 98 | 1010.5 |
| 20260502012041 | 13 | 348 | 6.4 | 9.7 | 0.00 | 0.86 | 0.86 | 98 | 1010.8 |
| 20260502011538 | 13 | 25 | 4.8 | 8.0 | 0.00 | 0.86 | 0.86 | 98 | 1011.4 |
| 20260502011034 | 13 | 322 | 6.4 | 11.3 | 0.00 | 0.86 | 0.86 | 98 | 1011.2 |
| 20260502010532 | 13 | 345 | 8.0 | 9.7 | 0.00 | 0.86 | 0.86 | 98 | 1011.3 |
| 20260502010027 | 13 | 311 | 9.7 | 11.3 | 0.00 | 0.86 | 0.86 | 98 | 1010.9 |
| 20260502005526 | 13 | 340 | 1.6 | 3.2 | 0.00 | 0.86 | 0.86 | 98 | 1009.9 |
| 20260502005023 | 14 | 43 | 4.8 | 8.0 | 0.00 | 0.86 | 0.86 | 98 | 1009.3 |
| 20260502004519 | 14 | 35 | 6.4 | 9.7 | 0.00 | 0.86 | 0.86 | 98 | 1009.4 |
| 20260502004016 | 14 | 51 | 4.8 | 4.8 | 0.00 | 0.86 | 0.86 | 98 | 1009.5 |
| 20260502003514 | 15 | 333 | 3.2 | 3.2 | 0.00 | 0.86 | 0.86 | 98 | 1010.1 |
| 20260502003010 | 14 | 323 | 4.8 | 4.8 | 0.00 | 0.86 | 0.86 | 98 | 1010.4 |
| 20260502002507 | 15 | 21 | 4.8 | 8.0 | 0.00 | 0.86 | 0.86 | 98 | 1010.6 |
| 20260502002004 | 14 | 321 | 4.8 | 4.8 | 0.00 | 0.86 | 0.86 | 98 | 1010.3 |
| 20260502001502 | 14 | 336 | 4.8 | 4.8 | 0.00 | 0.86 | 0.86 | 98 | 1009.9 |
| 20260502000959 | 14 | 338 | 3.2 | 3.2 | 0.00 | 0.86 | 0.86 | 98 | 1010.3 |
| 20260502000457 | 14 | 348 | 4.8 | 4.8 | 0.00 | 0.86 | 0.86 | 98 | 1010.3 |
| 20260501235953 | 14 | 28 | 0.0 | 0.0 | 0.00 | 0.86 | 0.86 | 98 | 1009.7 |
| 20260501235449 | 15 | 19 | 6.4 | 8.0 | 0.00 | 0.86 | 0.86 | 98 | 1009.3 |
| 20260501234944 | 15 | 340 | 8.0 | 9.7 | 0.00 | 0.86 | 0.86 | 98 | 1010.0 |
| 20260501234441 | 15 | 304 | 3.2 | 3.2 | 0.00 | 0.86 | 0.86 | 98 | 1009.7 |
| 20260501233940 | 15 | 326 | 3.2 | 3.2 | 0.00 | 0.86 | 0.86 | 98 | 1009.5 |
| 20260501233437 | 15 | 68 | 6.4 | 9.7 | 0.00 | 0.86 | 0.86 | 98 | 1009.2 |
| 20260501232933 | 15 | 40 | 3.2 | 3.2 | 0.00 | 0.86 | 0.86 | 98 | 1009.4 |
| 20260501232430 | 15 | 58 | 4.8 | 8.0 | 0.00 | 0.86 | 0.86 | 98 | 1008.8 |
| 20260501231927 | 15 | 62 | 6.4 | 11.3 | 0.00 | 0.86 | 0.86 | 98 | 1008.8 |
| 20260501231426 | 15 | 94 | 3.2 | 4.8 | 0.00 | 0.86 | 0.86 | 98 | 1008.9 |
| 20260501230923 | 15 | 71 | 8.0 | 11.3 | 0.00 | 0.86 | 0.86 | 98 | 1009.2 |
| 20260501230422 | 15 | 57 | 1.6 | 1.6 | 0.00 | 0.86 | 0.86 | 98 | 1009.0 |
| 20260501225919 | 15 | 106 | 1.6 | 3.2 | 0.00 | 0.86 | 0.86 | 98 | 1009.0 |
| 20260501225417 | 15 | 38 | 1.6 | 3.2 | 0.00 | 0.86 | 0.86 | 98 | 1009.1 |
| 20260501224912 | 15 | 27 | 8.0 | 11.3 | 0.00 | 0.86 | 0.86 | 98 | 1008.2 |
| 20260501224410 | 15 | 15 | 6.4 | 9.7 | 0.00 | 0.86 | 0.86 | 98 | 1007.7 |
| 20260501223906 | 15 | 26 | 9.7 | 12.9 | 0.00 | 0.86 | 0.86 | 98 | 1007.2 |
| 20260501223403 | 15 | 58 | 14.5 | 16.1 | 0.00 | 0.86 | 0.86 | 98 | 1006.9 |
| 20260501222858 | 15 | 88 | 9.7 | 12.9 | 0.00 | 0.86 | 0.86 | 98 | 1007.2 |
| 20260501222356 | 15 | 72 | 8.0 | 9.7 | 0.00 | 0.86 | 0.86 | 98 | 1007.3 |
| 20260501221852 | 15 | 74 | 6.4 | 8.0 | 0.00 | 0.86 | 0.86 | 98 | 1007.6 |
| 20260501221349 | 15 | 41 | 8.0 | 12.9 | 0.00 | 0.86 | 0.86 | 98 | 1007.8 |
| 20260501220848 | 15 | 50 | 3.2 | 4.8 | 0.00 | 0.86 | 0.86 | 98 | 1008.1 |
| 20260501220345 | 15 | 74 | 4.8 | 8.0 | 0.00 | 0.86 | 0.86 | 98 | 1008.8 |
| 20260501215841 | 15 | 16 | 3.2 | 3.2 | 0.00 | 0.86 | 0.86 | 98 | 1009.1 |
| 20260501215337 | 15 | 53 | 8.0 | 12.9 | 0.00 | 0.86 | 0.86 | 98 | 1009.0 |
| 20260501214833 | 15 | 346 | 4.8 | 4.8 | 0.00 | 0.86 | 0.86 | 98 | 1009.0 |
| 20260501214328 | 15 | 8 | 8.0 | 9.7 | 0.00 | 0.86 | 0.86 | 98 | 1009.1 |
| 20260501213824 | 15 | 358 | 3.2 | 3.2 | 0.00 | 0.86 | 0.86 | 98 | 1008.9 |
| 20260501213321 | 15 | 338 | 3.2 | 4.8 | 0.00 | 0.86 | 0.86 | 98 | 1008.8 |
| 20260501212817 | 15 | 333 | 6.4 | 8.0 | 0.00 | 0.86 | 0.86 | 98 | 1008.8 |
| 20260501212314 | 15 | 340 | 3.2 | 4.8 | 0.00 | 0.86 | 0.86 | 98 | 1008.8 |
| 20260501211811 | 15 | 347 | 8.0 | 9.7 | 0.00 | 0.86 | 0.86 | 98 | 1008.2 |
| 20260501211308 | 15 | 31 | 11.3 | 14.5 | 0.00 | 0.86 | 0.86 | 98 | 1007.9 |
| 20260501210805 | 15 | 39 | 1.6 | 3.2 | 0.00 | 0.86 | 0.86 | 98 | 1007.5 |
| 20260501210302 | 15 | 19 | 6.4 | 8.0 | 0.00 | 0.86 | 0.86 | 98 | 1006.9 |
| 20260501205758 | 15 | 165 | 4.8 | 8.0 | 0.00 | 0.86 | 0.86 | 98 | 1007.1 |
| 20260501205255 | 15 | 34 | 3.2 | 3.2 | 0.00 | 0.86 | 0.86 | 98 | 1007.9 |
| 20260501204752 | 15 | 48 | 3.2 | 3.2 | 0.00 | 0.86 | 0.86 | 98 | 1008.0 |
| 20260501204248 | 15 | 49 | 4.8 | 8.0 | 0.00 | 0.86 | 0.86 | 98 | 1007.8 |
| 20260501203745 | 16 | 345 | 8.0 | 9.7 | 0.00 | 0.86 | 0.86 | 98 | 1007.8 |
| 20260501203242 | 16 | 82 | 4.8 | 4.8 | 0.00 | 0.86 | 0.86 | 98 | 1006.9 |
| 20260501202739 | 16 | 8 | 3.2 | 3.2 | 0.00 | 0.86 | 0.86 | 98 | 1007.2 |
| 20260501202236 | 16 | 310 | 6.4 | 11.3 | 0.00 | 0.86 | 0.86 | 98 | 1007.1 |
| 20260501201733 | 16 | 39 | 8.0 | 11.3 | 0.00 | 0.86 | 0.86 | 98 | 1006.6 |
| 20260501201230 | 16 | 349 | 9.7 | 11.3 | 0.00 | 0.86 | 0.86 | 98 | 1007.6 |
| 20260501200726 | 16 | 28 | 4.8 | 4.8 | 0.00 | 0.86 | 0.86 | 98 | 1007.5 |
| 20260501200223 | 16 | 318 | 6.4 | 9.7 | 0.00 | 0.86 | 0.86 | 98 | 1007.9 |
| 20260501195721 | 16 | 342 | 8.0 | 9.7 | 0.00 | 0.86 | 0.86 | 98 | 1007.9 |
| 20260501195217 | 16 | 326 | 11.3 | 14.5 | 0.00 | 0.86 | 0.86 | 98 | 1007.4 |
| 20260501194713 | 16 | 332 | 3.2 | 4.8 | 0.00 | 0.86 | 0.86 | 98 | 1007.5 |
| 20260501194208 | 16 | 56 | 3.2 | 4.8 | 0.00 | 0.86 | 0.86 | 98 | 1007.3 |
| 20260501193705 | 16 | 327 | 4.8 | 8.0 | 0.00 | 0.86 | 0.86 | 98 | 1007.3 |
| 20260501193204 | 16 | 62 | 1.6 | 3.2 | 0.00 | 0.86 | 0.86 | 98 | 1007.1 |
| 20260501192701 | 16 | 331 | 4.8 | 8.0 | 0.00 | 0.86 | 0.86 | 98 | 1006.9 |
| 20260501192158 | 16 | 40 | 1.6 | 1.6 | 0.00 | 0.86 | 0.86 | 98 | 1007.1 |
| 20260501191655 | 16 | 45 | 3.2 | 3.2 | 0.00 | 0.86 | 0.86 | 98 | 1007.1 |
| 20260501191153 | 16 | 111 | 3.2 | 3.2 | 0.00 | 0.86 | 0.86 | 98 | 1007.2 |
| 20260501190649 | 16 | 44 | 1.6 | 1.6 | 0.00 | 0.86 | 0.86 | 98 | 1006.8 |
| 20260501190144 | 16 | 57 | 1.6 | 1.6 | 0.00 | 0.86 | 0.86 | 98 | 1006.6 |
| 20260501185640 | 16 | 73 | 4.8 | 4.8 | 0.00 | 0.86 | 0.86 | 98 | 1006.5 |
| 20260501185136 | 16 | 58 | 1.6 | 1.6 | 0.00 | 0.86 | 0.86 | 98 | 1006.7 |
| 20260501184633 | 16 | 25 | 4.8 | 8.0 | 0.00 | 0.86 | 0.86 | 98 | 1006.9 |
| 20260501184127 | 16 | 65 | 3.2 | 3.2 | 0.00 | 0.86 | 0.86 | 98 | 1007.3 |
| 20260501183624 | 16 | 118 | 3.2 | 3.2 | 0.00 | 0.86 | 0.86 | 98 | 1007.5 |
| 20260501183121 | 16 | 43 | 3.2 | 3.2 | 0.00 | 0.86 | 0.86 | 98 | 1006.7 |
| 20260501182617 | 16 | 322 | 4.8 | 8.0 | 0.00 | 0.86 | 0.86 | 98 | 1006.0 |
| 20260501182114 | 16 | 74 | 8.0 | 11.3 | 0.00 | 0.86 | 0.86 | 98 | 1004.8 |
| 20260501181611 | 16 | 82 | 9.7 | 12.9 | 0.00 | 0.86 | 0.86 | 98 | 1005.0 |
| 20260501181108 | 16 | 108 | 9.7 | 11.3 | 0.00 | 0.86 | 0.86 | 98 | 1005.5 |
| 20260501180607 | 16 | 127 | 4.8 | 4.8 | 0.00 | 0.86 | 0.86 | 98 | 1005.4 |
| 20260501175559 | 16 | 20 | 4.8 | 8.0 | 0.00 | 0.86 | 0.86 | 98 | 1006.9 |
| 20260501175056 | 16 | 62 | 4.8 | 8.0 | 0.00 | 0.86 | 0.86 | 98 | 1007.0 |
| 20260501174553 | 16 | 11 | 6.4 | 9.7 | 0.00 | 0.86 | 0.86 | 98 | 1007.2 |
| 20260501174050 | 16 | 22 | 4.8 | 4.8 | 0.00 | 0.86 | 0.86 | 98 | 1007.5 |
| 20260501173547 | 16 | 77 | 4.8 | 9.7 | 0.00 | 0.86 | 0.86 | 98 | 1007.9 |
| 20260501173044 | 16 | 21 | 4.8 | 4.8 | 0.00 | 0.86 | 0.86 | 98 | 1008.4 |
| 20260501172539 | 16 | 7 | 4.8 | 11.3 | 0.00 | 0.86 | 0.86 | 98 | 1008.0 |
| 20260501172035 | 16 | 301 | 8.0 | 9.7 | 0.00 | 0.86 | 0.86 | 98 | 1008.2 |
| 20260501171532 | 16 | 342 | 1.6 | 3.2 | 0.00 | 0.86 | 0.86 | 98 | 1008.0 |
| 20260501171028 | 16 | 69 | 3.2 | 4.8 | 0.00 | 0.86 | 0.86 | 98 | 1008.1 |
| 20260501170525 | 16 | 36 | 4.8 | 4.8 | 0.00 | 0.86 | 0.86 | 98 | 1008.0 |
| 20260501170022 | 16 | 355 | 4.8 | 4.8 | 0.00 | 0.86 | 0.86 | 98 | 1008.4 |
| 20260501165520 | 16 | 27 | 1.6 | 3.2 | 0.00 | 0.86 | 0.86 | 98 | 1008.5 |
| 20260501165018 | 16 | 53 | 0.0 | 1.6 | 0.00 | 0.86 | 0.86 | 98 | 1008.7 |
| 20260501164515 | 16 | 59 | 3.2 | 3.2 | 0.00 | 0.86 | 0.86 | 98 | 1009.1 |
| 20260501164012 | 16 | 41 | 3.2 | 8.0 | 0.00 | 0.86 | 0.86 | 98 | 1009.4 |
| 20260501163508 | 16 | 346 | 0.0 | 1.6 | 0.00 | 0.86 | 0.86 | 98 | 1009.6 |
| 20260501163005 | 16 | 56 | 1.6 | 3.2 | 0.00 | 0.86 | 0.86 | 98 | 1009.7 |
| 20260501162501 | 16 | 56 | 1.6 | 3.2 | 0.00 | 0.86 | 0.86 | 98 | 1010.2 |
| 20260501161958 | 16 | 349 | 8.0 | 11.3 | 0.00 | 0.86 | 0.86 | 98 | 1010.0 |
| 20260501161455 | 16 | 351 | 4.8 | 4.8 | 0.00 | 0.86 | 0.86 | 98 | 1009.8 |
| 20260501160952 | 16 | 324 | 6.4 | 9.7 | 0.00 | 0.86 | 0.86 | 98 | 1009.7 |
| 20260501160449 | 16 | 325 | 9.7 | 14.5 | 0.00 | 0.86 | 0.86 | 98 | 1010.0 |
| 20260501155946 | 16 | 347 | 8.0 | 11.3 | 0.00 | 0.86 | 0.86 | 98 | 1009.9 |
| 20260501155443 | 16 | 332 | 9.7 | 11.3 | 0.00 | 0.86 | 0.86 | 98 | 1010.1 |
| 20260501154939 | 16 | 332 | 8.0 | 9.7 | 0.00 | 0.86 | 0.86 | 98 | 1010.2 |